******************************************************************************* JPL/HORIZONS (2018 WV1) 2025-Dec-12 17:49:50 Rec #:50361715 (+COV) Soln.date: 2021-Apr-15_20:55:21 # obs: 90 (14 days) IAU76/J2000 helio. ecliptic osc. elements (au, days, deg., period=Julian yrs): EPOCH= 2458458.5 ! 2018-Dec-06.00 (TDB) Residual RMS= .12928 EC= .06869100257422787 QR= .9715505345748198 TP= 2458416.866413563 OM= 248.5061090469913 W= 141.3742304527303 IN= 1.905403987972275 A= 1.043209651426411 MA= 38.51150609898719 ADIST= 1.114868768278002 PER= 1.06553 N= .925010536 ANGMOM= .017528317 DAN= 1.09717 DDN= .98541 L= 29.8957922 B= 1.1892785 MOID= .00037104 TP= 2018-Oct-25.3664135630 Asteroid physical parameters (km, seconds, rotational period in hours): GM= n.a. RAD= n.a. ROTPER= n.a. H= 30.3 G= .150 B-V= n.a. ALBEDO= n.a. STYP= n.a. ASTEROID comments: 1: soln ref.= JPL#17, OCC=2 2: source=ORB ******************************************************************************* ******************************************************************************* Ephemeris / WWW_USER Fri Dec 12 17:49:50 2025 Pasadena, USA / Horizons ******************************************************************************* Target body name: (2018 WV1) {source: JPL#17} Center body name: Solar System Barycenter (0) {source: DE441} Center-site name: BODY CENTER ******************************************************************************* Start time : A.D. 2023-Feb-25 00:00:00.0000 TDB Stop time : A.D. 2023-Sep-13 00:00:00.0000 TDB Step-size : 1 calendar years ******************************************************************************* Center geodetic : 0.0, 0.0, 0.0 {E-lon(deg),Lat(deg),Alt(km)} Center cylindric: 0.0, 0.0, 0.0 {E-lon(deg),Dxy(km),Dz(km)} Center radii : (undefined) Keplerian GM : 2.9630927493968080E-04 au^3/d^2 Small perturbers: Yes {source: SB441-N16} Output units : AU-D, deg, Julian Day Number (Tp) Calendar mode : Mixed Julian/Gregorian Output type : GEOMETRIC osculating elements Output format : 10 Reference frame : Ecliptic of J2000.0 ******************************************************************************* Initial IAU76/J2000 heliocentric ecliptic osculating elements (au, days, deg.): EPOCH= 2458458.5 ! 2018-Dec-06.00 (TDB) Residual RMS= .12928 EC= .06869100257422787 QR= .9715505345748198 TP= 2458416.866413563 OM= 248.5061090469913 W= 141.3742304527303 IN= 1.905403987972275 Equivalent ICRF heliocentric cartesian coordinates (au, au/d): X= 2.787163119783287E-01 Y= 8.719775267121872E-01 Z= 3.748421051204766E-01 VX=-1.676682657337402E-02 VY= 5.516972965834891E-03 VZ= 1.749720915605096E-03 Asteroid physical parameters (km, seconds, rotational period in hours): GM= n.a. RAD= n.a. ROTPER= n.a. H= 30.3 G= .150 B-V= n.a. ALBEDO= n.a. STYP= n.a. ******************************************************************************* JDTDB EC QR IN OM W Tp N MA TA A AD PR ******************************************************************************* $$SOE 2460000.500000000 = A.D. 2023-Feb-25 00:00:00.0000 TDB EC= 6.018189552603859E-02 QR= 9.670066545814663E-01 IN= 1.653628865722865E+00 OM= 2.472872180840902E+02 W = 1.355280604485100E+02 Tp= 2459958.400778567418 N = 9.449672810643044E-01 MA= 3.978238681228353E+01 TA= 4.445997492205540E+01 A = 1.028929587521325E+00 AD= 1.090852520461183E+00 PR= 3.809655712042608E+02 $$EOE ******************************************************************************* TIME Barycentric Dynamical Time ("TDB" or T_eph) output was requested. This continuous coordinate time is equivalent to the relativistic proper time of a clock at rest in a reference frame co-moving with the solar system barycenter but outside the system's gravity well. It is the independent variable in the solar system relativistic equations of motion. TDB runs at a uniform rate of one SI second per second and is independent of irregularities in Earth's rotation. CALENDAR SYSTEM Mixed calendar mode was active such that calendar dates after AD 1582-Oct-15 (if any) are in the modern Gregorian system. Dates prior to 1582-Oct-5 (if any) are in the Julian calendar system, which is automatically extended for dates prior to its adoption on 45-Jan-1 BC. The Julian calendar is useful for matching historical dates. The Gregorian calendar more accurately corresponds to the Earth's orbital motion and seasons. A "Gregorian-only" calendar mode is available if such physical events are the primary interest. REFERENCE FRAME AND COORDINATES Ecliptic at the standard reference epoch Reference epoch: J2000.0 X-Y plane: adopted Earth orbital plane at the reference epoch Note: IAU76 obliquity of 84381.448 arcseconds wrt ICRF X-Y plane X-axis : ICRF Z-axis : perpendicular to the X-Y plane in the directional (+ or -) sense of Earth's north pole at the reference epoch. Symbol meaning [1 au= 149597870.700 km, 1 day= 86400.0 s]: JDTDB Julian Day Number, Barycentric Dynamical Time EC Eccentricity, e QR Periapsis distance, q (au) IN Inclination w.r.t X-Y plane, i (degrees) OM Longitude of Ascending Node, OMEGA, (degrees) W Argument of Perifocus, w (degrees) Tp Time of periapsis (Julian Day Number) N Mean motion, n (degrees/day) MA Mean anomaly, M (degrees) TA True anomaly, nu (degrees) A Semi-major axis, a (au) AD Apoapsis distance (au) PR Sidereal orbit period (day) ABERRATIONS AND CORRECTIONS Geometric osculating elements have NO corrections or aberrations applied. Computations by ... Solar System Dynamics Group, Horizons On-Line Ephemeris System 4800 Oak Grove Drive, Jet Propulsion Laboratory Pasadena, CA 91109 USA General site: https://ssd.jpl.nasa.gov/ Mailing list: https://ssd.jpl.nasa.gov/email_list.html System news : https://ssd.jpl.nasa.gov/horizons/news.html User Guide : https://ssd.jpl.nasa.gov/horizons/manual.html Connect : browser https://ssd.jpl.nasa.gov/horizons/app.html#/x API https://ssd-api.jpl.nasa.gov/doc/horizons.html command-line telnet ssd.jpl.nasa.gov 6775 e-mail/batch https://ssd.jpl.nasa.gov/ftp/ssd/horizons_batch.txt scripts https://ssd.jpl.nasa.gov/ftp/ssd/SCRIPTS Author : Jon.D.Giorgini@jpl.nasa.gov ******************************************************************************* !$$SOF CENTER = '@0' COMMAND = '2018 WV1' OUT_UNITS = 'AU-D' START_TIME = 'JD2460000.5' STEP_SIZE = '1y' STOP_TIME = 'JD2460200.5' TABLE_TYPE = 'ELEMENTS'